SQ6XL-13 Weather Reports


time (UTC)temp
C
wind
direction
speed
KPH
gust
KPH
rain 1hr
cm
rain 24hr
cm
rain mn
cm
humidity
%
barometer
mb
20260905170004 18 0.0 0.0 0.00 0.00 0.00 57 1018.9
20260905165009 18 0.0 0.0 0.00 0.00 0.00 56 1018.9
20260905164102 18 0.0 0.0 0.00 0.00 0.00 55 1018.8
20260905163220 18 0.0 0.0 0.00 0.00 0.00 55 1018.8
20260905162229 19 0.0 0.0 0.00 0.00 0.00 53 1018.6
20260905161310 19 0.0 0.0 0.00 0.00 0.00 53 1018.3
20260905160445 19 0.0 0.0 0.00 0.00 0.00 54 1018.2
20260905155555 19 0.0 0.0 0.00 0.00 0.00 53 1018.2
20260905154749 19 0.0 0.0 0.00 0.00 0.00 54 1018.4
20260905153839 19 0.0 0.0 0.00 0.00 0.00 54 1018.2
20260905153019 19 0.0 0.0 0.00 0.00 0.00 54 1018.2
20260905152029 20 0.0 0.0 0.00 0.00 0.00 53 1018.2
20260905151119 20 0.0 0.0 0.00 0.00 0.00 53 1018.2
20260905150314 20 0.0 0.0 0.00 0.00 0.00 54 1018.1
20260905145430 20 0.0 0.0 0.00 0.00 0.00 57 1018.1
20260905144509 20 0.0 0.0 0.00 0.00 0.00 55 1018.1
20260905143535 20 0.0 0.0 0.00 0.00 0.00 56 1018.1
20260905142609 20 0.0 0.0 0.00 0.00 0.00 56 1018.1
20260905141639 20 0.0 0.0 0.00 0.00 0.00 55 1018.1
20260905140719 20 0.0 0.0 0.00 0.00 0.00 54 1018.0
20260905135735 20 0.0 0.0 0.00 0.00 0.00 57 1018.0
20260905134834 20 0.0 0.0 0.00 0.00 0.00 56 1017.9
20260905134025 20 0.0 0.0 0.00 0.00 0.00 54 1018.1
20260905133124 20 0.0 0.0 0.00 0.00 0.00 54 1018.0
20260905132205 21 0.0 0.0 0.00 0.00 0.00 54 1017.9
20260905131259 21 0.0 0.0 0.00 0.00 0.00 57 1018.0
20260905130359 20 0.0 0.0 0.00 0.00 0.00 60 1018.0
20260905125434 20 0.0 0.0 0.00 0.00 0.00 57 1018.1
20260905124609 20 0.0 0.0 0.00 0.00 0.00 57 1018.1
20260905123709 20 0.0 0.0 0.00 0.00 0.00 57 1018.2
20260905122825 20 0.0 0.0 0.00 0.00 0.00 58 1018.3
20260905121859 21 0.0 0.0 0.00 0.00 0.00 55 1018.3
20260905120959 20 0.0 0.0 0.00 0.00 0.00 53 1018.3
20260905120015 21 0.0 0.0 0.00 0.00 0.00 54 1018.3
20260905115019 21 0.0 0.0 0.00 0.00 0.00 56 1018.1
20260905114019 21 0.0 0.0 0.00 0.00 0.00 56 1018.2
20260905113114 21 0.0 0.0 0.00 0.00 0.00 58 1018.2
20260905112224 21 0.0 0.0 0.00 0.00 0.00 59 1018.1
20260905111225 20 0.0 0.0 0.00 0.00 0.00 59 1018.1
20260905110309 19 0.0 0.0 0.00 0.00 0.00 61 1018.2
20260905105441 20 0.0 0.0 0.00 0.00 0.00 62 1018.0
20260905104535 19 0.0 0.0 0.00 0.00 0.00 63 1018.1
20260905103635 19 0.0 0.0 0.00 0.00 0.00 63 1018.1
20260905102709 20 0.0 0.0 0.00 0.00 0.00 66 1018.1
20260905101734 19 0.0 0.0 0.00 0.00 0.00 67 1018.0
20260905100749 18 0.0 0.0 0.00 0.00 0.00 68 1018.0
20260905095904 18 0.0 0.0 0.00 0.00 0.00 71 1018.1
20260905094944 17 0.0 0.0 0.00 0.00 0.00 74 1018.3
20260905093944 17 0.0 0.0 0.00 0.00 0.00 74 1018.3
20260905093034 17 0.0 0.0 0.00 0.00 0.00 74 1018.3
20260905092135 17 0.0 0.0 0.00 0.00 0.00 73 1018.3
20260905091314 17 0.0 0.0 0.00 0.00 0.00 73 1018.2
20260905090455 17 0.0 0.0 0.00 0.00 0.00 74 1018.2
20260905085559 17 0.0 0.0 0.00 0.00 0.00 74 1018.2
20260905084650 17 0.0 0.0 0.00 0.00 0.00 75 1018.2
20260905083700 16 0.0 0.0 0.00 0.00 0.00 76 1018.0
20260905082859 16 0.0 0.0 0.00 0.00 0.00 74 1017.9
20260905081949 16 0.0 0.0 0.00 0.00 0.00 72 1017.9
20260905081144 16 0.0 0.0 0.00 0.00 0.00 72 1017.8
20260905080209 16 0.0 0.0 0.00 0.00 0.00 72 1017.6
20260905075215 17 0.0 0.0 0.00 0.00 0.00 76 1017.7
20260905074219 17 0.0 0.0 0.00 0.00 0.00 79 1017.5
20260905073249 16 0.0 0.0 0.00 0.00 0.00 78 1017.5
20260905072324 17 0.0 0.0 0.00 0.00 0.00 79 1017.4
20260905071500 16 0.0 0.0 0.00 0.00 0.00 81 1017.5
20260905070655 16 0.0 0.0 0.00 0.00 0.00 82 1017.3
20260905065743 16 0.0 0.0 0.00 0.00 0.00 84 1017.3
20260905064814 16 0.0 0.0 0.00 0.00 0.00 85 1017.1
20260905063904 16 0.0 0.0 0.00 0.00 0.00 86 1017.1
20260905062954 16 0.0 0.0 0.00 0.00 0.00 87 1017.1
20260905061954 15 0.0 0.0 0.00 0.00 0.00 88 1017.0
20260905061145 15 0.0 0.0 0.00 0.00 0.00 89 1016.9
20260905060234 15 0.0 0.0 0.00 0.00 0.00 91 1016.9
20260905055424 14 0.0 0.0 0.00 0.00 0.00 92 1016.9
20260905054624 14 0.0 0.0 0.00 0.00 0.00 91 1016.8
20260905053749 14 0.0 0.0 0.00 0.00 0.00 91 1016.7
20260905052844 14 0.0 0.0 0.00 0.00 0.00 92 1016.3
20260905051930 14 0.0 0.0 0.00 0.00 0.00 92 1016.4
20260905051004 14 0.0 0.0 0.00 0.00 0.00 92 1016.4
20260905050139 14 0.0 0.0 0.00 0.00 0.00 92 1016.4
20260905045334 14 0.0 0.0 0.00 0.00 0.00 92 1016.3
20260905044445 14 0.0 0.0 0.00 0.00 0.00 92 1016.4
20260905043629 14 0.0 0.0 0.00 0.00 0.00 92 1016.1
20260905042644 14 0.0 0.0 0.00 0.00 0.00 92 1016.1
20260905041645 14 0.0 0.0 0.00 0.00 0.00 92 1015.9
20260905040729 14 0.0 0.0 0.00 0.00 0.00 92 1016.0
20260905035744 14 0.0 0.0 0.00 0.00 0.00 92 1015.9
20260905034924 14 0.0 0.0 0.00 0.00 0.00 90 1015.8
20260905034119 14 0.0 0.0 0.00 0.00 0.00 90 1015.8
20260905033259 14 0.0 0.0 0.00 0.00 0.00 90 1015.7
20260905032314 14 0.0 0.0 0.00 0.00 0.00 89 1015.7
20260905031349 14 0.0 0.0 0.00 0.00 0.00 89 1015.4
20260905030509 14 0.0 0.0 0.00 0.00 0.00 87 1015.6
20260905025630 14 0.0 0.0 0.00 0.00 0.00 86 1015.3
20260905024815 14 0.0 0.0 0.00 0.00 0.00 86 1014.9
20260905023945 14 0.0 0.0 0.00 0.00 0.00 87 1015.1
20260905023009 14 0.0 0.0 0.00 0.00 0.00 88 1014.9
20260905022049 14 0.0 0.0 0.00 0.00 0.00 90 1014.3
20260905021237 14 0.0 0.0 0.00 0.00 0.00 92 1014.3
20260905020414 14 0.0 0.0 0.00 0.00 0.00 92 1014.7
20260905015515 14 0.0 0.0 0.00 0.00 0.00 93 1014.6
20260905014640 14 0.0 0.0 0.00 0.00 0.00 93 1014.6
20260905013639 14 0.0 0.0 0.00 0.00 0.00 92 1014.5
20260905012715 14 0.0 0.0 0.00 0.00 0.00 92 1014.4
20260905011805 15 0.0 0.0 0.00 0.00 0.00 91 1014.7
20260905010814 15 0.0 0.0 0.00 0.00 0.00 91 1015.1
20260905005930 15 0.0 0.0 0.00 0.00 0.00 92 1014.8
20260905005105 15 0.0 0.0 0.00 0.00 0.00 92 1014.8
20260905004204 15 0.0 0.0 0.05 0.00 0.00 92 1014.9
20260905003249 16 0.0 0.0 0.03 0.00 0.00 92 1014.7
20260905002340 16 0.0 0.0 0.00 0.00 0.00 92 1014.5
20260905001439 16 0.0 0.0 0.00 0.00 0.00 91 1014.4
20260905000614 16 0.0 0.0 0.00 0.00 0.00 91 1014.2
20260904235704 16 0.0 0.0 0.00 0.00 0.00 89 1013.7
20260904234839 16 0.0 0.0 0.00 0.00 0.00 89 1013.8
20260904233959 16 0.0 0.0 0.00 0.00 0.00 88 1014.1
20260904233144 16 0.0 0.0 0.00 0.00 0.00 87 1013.9
20260904232254 16 0.0 0.0 0.00 0.00 0.00 85 1013.6
20260904231340 17 0.0 0.0 0.00 0.00 0.00 83 1013.1
20260904230510 17 0.0 0.0 0.00 0.00 0.00 82 1012.9
20260904225619 17 0.0 0.0 0.00 0.00 0.00 82 1013.1
20260904224704 17 0.0 0.0 0.00 0.00 0.00 81 1013.1
20260904223800 17 0.0 0.0 0.00 0.00 0.00 79 1013.2
20260904222954 17 0.0 0.0 0.00 0.00 0.00 78 1013.0
20260904222125 17 0.0 0.0 0.00 0.00 0.00 78 1013.2
20260904221219 17 0.0 0.0 0.00 0.00 0.00 78 1012.8
20260904220244 17 0.0 0.0 0.00 0.00 0.00 77 1012.7
20260904215334 17 0.0 0.0 0.00 0.00 0.00 77 1012.7
20260904214514 17 0.0 0.0 0.00 0.00 0.00 76 1012.6
20260904213550 17 0.0 0.0 0.00 0.00 0.00 76 1012.8
20260904212654 18 0.0 0.0 0.00 0.00 0.00 75 1012.5
20260904211755 18 0.0 0.0 0.00 0.00 0.00 75 1012.6
20260904210834 18 0.0 0.0 0.00 0.00 0.00 74 1012.5
20260904210004 18 0.0 0.0 0.00 0.00 0.00 73 1012.4
20260904205149 18 0.0 0.0 0.00 0.00 0.00 72 1012.5
20260904204149 19 0.0 0.0 0.00 0.00 0.00 70 1012.5
20260904203249 19 0.0 0.0 0.00 0.00 0.00 68 1012.8
20260904202344 20 0.0 0.0 0.00 0.00 0.00 67 1012.6
20260904201504 20 0.0 0.0 0.00 0.00 0.00 67 1012.3
20260904200634 20 0.0 0.0 0.00 0.00 0.00 67 1012.4
20260904195824 20 0.0 0.0 0.00 0.00 0.00 67 1012.5
20260904194935 20 0.0 0.0 0.00 0.00 0.00 71 1012.3
20260904194104 20 0.0 0.0 0.00 0.00 0.00 72 1012.1
20260904193209 20 0.0 0.0 0.00 0.00 0.00 74 1011.7
20260904192330 22 0.0 0.0 0.00 0.00 0.00 71 1011.7
20260904191500 24 0.0 0.0 0.00 0.00 0.00 66 1011.4
20260904190529 23 0.0 0.0 0.00 0.00 0.00 66 1010.5
20260904185714 23 0.0 0.0 0.00 0.00 0.00 66 1010.3
20260904184844 23 0.0 0.0 0.00 0.00 0.00 66 1010.3
20260904184000 23 0.0 0.0 0.00 0.00 0.00 67 1010.2
20260904183019 23 0.0 0.0 0.00 0.00 0.00 67 1010.4
20260904182044 23 0.0 0.0 0.00 0.00 0.00 67 1010.2
20260904181214 23 0.0 0.0 0.00 0.00 0.00 67 1010.1
20260904180335 23 0.0 0.0 0.00 0.00 0.00 68 1010.0
20260904175354 23 0.0 0.0 0.00 0.00 0.00 69 1010.4
20260904174405 23 0.0 0.0 0.00 0.00 0.00 69 1010.6
20260904173600 23 0.0 0.0 0.00 0.00 0.00 69 1010.6
20260904172709 23 0.0 0.0 0.00 0.00 0.00 70 1010.9
20260904171716 23 0.0 0.0 0.00 0.00 0.00 70 1010.7
20260904170819 23 0.0 0.0 0.00 0.00 0.00 70 1010.7